Buffalo, SD

2:54 AM MDT on March 26, 2017 (GMT -0600)
Buffalo

Weather History for K2WX - November, 2012

Change the Weather History Date:

Monday, November 5, 2012

  Actual Average Record
Temperature  
Mean Temperature 45 °F 37 °F  
Max Temperature 63 °F 48 °F 73 °F (2001)
Min Temperature 26 °F 26 °F 0 °F (2003)
Degree Days  
Heating Degree Days 20 28  
Month to date heating degree days 116 134  
Since 1 July heating degree days 928 1035  
Cooling Degree Days 0 0  
Month to date cooling degree days 0 0  
Year to date cooling degree days 853 513  
Moisture  
Dew Point 35 °F    
Average Humidity 72    
Maximum Humidity 100    
Minimum Humidity 43    
Precipitation  
Precipitation 0.03 in 0.02 in 0.15 in (2008)
Month to date precipitation 0.07 0.12  
Year to date precipitation 8.24 14.04  
Sea Level Pressure  
Sea Level Pressure 30.02 in    
Wind  
Wind Speed 12 mph (West)    
Max Wind Speed 36 mph    
Max Gust Speed 43 mph    
T = Trace of Precipitation, MM = Missing Value Source: NWS Daily Summary

Daily Weather History Graph

Daily Weather History Graph

Search for Another Location

Airport or City:

Trip Planner

Search our weather history database for the weather conditions in past years. The results will help you decide how hot, cold, wet, or windy it might be!

Date:

Astronomy

Nov. 05, 2012 Rise Set
Actual Time 6:40 AM MST 4:34 PM MST
Civil Twilight 6:08 AM MST 5:05 PM MST
Nautical Twilight 5:33 AM MST 5:41 PM MST
Astronomical Twilight 4:58 AM MST 6:15 PM MST
Moon 10:15 PM MST (11/5) 12:01 PM MST (11/5)
Length of Visible Light 10h 57m
Length of Day
9h 54m
Waning Gibbous, 62% of the Moon is Illuminated
Nov 5
Waning Gibbous
Nov 6
Last Quarter
Nov 13
New
Nov 20
First Quarter
Nov 28
Full

Hourly Weather History & Observations

Time (MST) Temp. Windchill Dew Point Humidity Pressure Visibility Wind Dir Wind Speed Gust Speed Precip Events Conditions
12:56 AM 33.1 °F - 32.0 °F 96% 30.19 in - Calm Calm - N/A   Unknown
1:56 AM 33.1 °F 30.0 °F 33.1 °F 100% 30.19 in - West 3.5 mph - N/A   Unknown
2:56 AM 30.9 °F - 30.0 °F 96% 30.16 in - Calm Calm - N/A   Unknown
3:56 AM 28.0 °F - 28.0 °F 100% 30.16 in - Calm Calm - N/A   Unknown
4:56 AM 27.0 °F - 25.0 °F 92% 30.15 in - Calm Calm - N/A   Unknown
5:56 AM 27.0 °F 23.0 °F 26.1 °F 96% 30.13 in - SE 3.5 mph - N/A   Unknown
6:56 AM 28.9 °F 22.8 °F 27.0 °F 92% 30.11 in - ESE 5.8 mph - N/A   Unknown
7:56 AM 30.9 °F 27.5 °F 30.0 °F 96% 30.11 in - South 3.5 mph - N/A   Unknown
8:56 AM 33.1 °F 25.5 °F 33.1 °F 100% 30.08 in - SSE 9.2 mph - N/A   Unknown
9:56 AM 43.0 °F 37.7 °F 37.9 °F 82% 30.04 in - South 9.2 mph - N/A   Unknown
10:56 AM 46.9 °F - 37.0 °F 68% 29.99 in - South 11.5 mph - N/A   Unknown
11:56 AM 52.0 °F - 37.0 °F 57% 29.93 in - South 12.7 mph - N/A   Unknown
12:56 PM 59.0 °F - 39.0 °F 48% 29.88 in - SW 12.7 mph - N/A   Unknown
1:56 PM 62.1 °F - 39.0 °F 43% 29.85 in - West 20.7 mph - N/A   Unknown
2:56 PM 62.1 °F - 39.0 °F 43% 29.85 in - West 15.0 mph - N/A   Unknown
3:56 PM 61.0 °F - 39.0 °F 44% 29.86 in - West 13.8 mph - N/A   Unknown
4:56 PM 55.9 °F - 39.0 °F 53% 29.88 in - West 12.7 mph - N/A   Unknown
5:34 PM 59.0 °F - 42.1 °F 53% 29.86 in - NNW 28.8 mph 40.3 mph N/A   Unknown
5:56 PM 53.1 °F - 46.9 °F 80% 29.95 in - NW 24.2 mph 40.3 mph 0.02 in   Unknown
6:56 PM 50.0 °F - 45.0 °F 83% 29.95 in - WNW 19.6 mph - 0.01 in   Unknown
7:56 PM 46.9 °F - 37.9 °F 71% 29.96 in - North 31.1 mph 39.1 mph N/A   Unknown
8:56 PM 41.0 °F 31.9 °F 34.0 °F 76% 30.04 in - NW 19.6 mph - N/A   Unknown
9:56 PM 36.0 °F 26.7 °F 32.0 °F 86% 30.04 in - WNW 15.0 mph - N/A   Unknown
10:56 PM 36.0 °F 25.0 °F 30.9 °F 82% 30.04 in - WNW 20.7 mph - N/A   Unknown
11:56 PM 37.0 °F 26.4 °F 30.9 °F 79% 30.04 in - NW 20.7 mph - N/A   Unknown